Location: Wiggen
(46.6667°N, 8.5167°E)
Time: 06:25:46
(UTC+00:00)

Daily predictions for brighter satellites

Satellite Brightness Start Highest point End
(mag) Time Altitude Azimuth Time Altitude Azimuth Time Altitude Azimuth
Cosmos 2322 4.1 16:09:44 10° SW 16:15:21 66° WNW 16:21:03 10° NNE
Cosmos 1939 Rocket 4.4 16:14:19 10° E 16:16:27 14° ENE 16:18:35 10° NNE
Cosmos 1869 3.5 16:12:55 10° S 16:16:57 81° WNW 16:21:04 10° N
Cosmos 2369 Rocket 4.0 16:15:28 10° NNE 16:17:11 11° NNE 16:18:53 10° NE
USA 281 4.2 16:12:47 10° E 16:17:56 25° NE 16:23:05 10° N
Cosmos 2184 Rocket 4.1 16:12:29 10° N 16:18:54 76° E 16:25:15 10° SSE
CORIOLIS 4.5 16:15:21 10° SE 16:20:27 45° ENE 16:25:37 10° N
Cosmos 1814 Rocket 4.1 16:17:14 10° SSW 16:22:35 89° ESE 16:27:55 10° NNE
Cosmos 1980 4.2 16:18:33 10° S 16:23:50 42° ESE 16:29:10 10° NE
Cosmos 2221 2.5 16:23:26 10° S 16:27:47 85° E 16:32:08 10° N
H-2A R/B 3.5 16:26:47 10° S 16:30:31 58° W 16:34:21 10° NNW
Cosmos 1570 Rocket 4.4 16:26:47 10° SSW 16:32:05 68° WNW 16:37:22 10° NNE
Cosmos 1500 Rocket 3.5 16:28:56 10° N 16:33:20 80° E 16:37:45 10° SSE
Abrixas rocket 2.6 16:30:43 10° W 16:33:25 50° SSW 16:36:06 10° SE
Meteor 2-2 Rocket 4.4 16:29:12 10° S 16:35:10 84° E 16:41:05 10° NNE
YAOGAN 6 2.6 16:31:42 10° SSE 16:35:21 89° ENE 16:39:00 10° NNW
CZ-4C R/B 3.3 16:35:14 10° N 16:38:50 73° WNW 16:42:28 10° SSW
Cosmos 405 Rocket 2.7 16:37:40 10° N 16:41:35 89° WSW 16:45:32 10° S
Cosmos 2297 4.5 16:38:48 10° N 16:43:48 31° NE 16:48:48 10° ESE
ADEOS Rocket 3.9 16:36:13 10° NNE 16:43:51 76° WNW 16:51:36 10° SSW
YAOGAN 1 4.1 16:44:13 13° E 16:45:50 15° ENE 16:48:21 10° NNE
Cosmos 405 3.9 16:42:41 10° SSW 16:46:05 49° WNW 16:49:29 10° N
Cosmos 389 Rocket 3.3 16:43:42 10° SSE 16:46:42 29° E 16:49:22 12° NE
Cosmos 1943 Rocket 3.4 16:42:46 10° N 16:46:57 21° NE 16:50:05 14° E
Cosmos 44 4.3 16:45:33 10° NNW 16:50:10 30° NE 16:54:10 13° E
H-2A R/B 3.4 16:46:20 10° S 16:50:37 54° WSW 16:54:46 10° NNW
Cosmos 1933 4.5 16:48:11 10° SE 16:51:24 23° E 16:53:48 14° NE
BREEZE-M DEB (TANK) 1.4 16:49:39 10° WSW 16:51:52 85° NNW 16:53:03 23° ENE
Cosmos 2322 Rocket 4.5 16:48:53 10° WNW 16:52:10 15° NW 16:55:27 10° N
SL-16 R/B 3.2 16:49:11 10° SSE 16:53:43 25° ESE 16:56:52 16° ENE
USA 215 3.5 16:47:51 13° ENE 16:53:44 56° SE 17:00:08 10° SW
Cosmos 1867 4.4 16:49:02 10° S 16:53:47 32° ESE 16:57:17 16° ENE
Cosmos 1743 Rocket 4.3 16:51:14 10° NNW 16:55:39 59° W 17:00:01 10° S
COSMO-SKYMED 1 3.5 16:52:06 10° NE 16:55:50 28° E 16:59:36 10° SSE
CZ-2C R/B 3.9 16:51:50 10° ESE 16:55:54 25° ENE 16:59:51 10° N
Okean-O 3.7 16:53:41 10° ESE 16:57:10 23° ENE 17:00:39 10° NNE
Cosmos 2218 Rocket 4.4 16:52:41 10° N 16:58:21 37° ENE 17:03:58 10° SE
Cosmos 2150 Rocket 4.4 16:53:50 10° NNW 16:58:58 68° WSW 17:04:04 10° S
Cosmos 1818 3.8 16:55:03 10° NW 17:00:32 78° WSW 17:05:59 10° SSE
AQUARIUS 4.3 16:56:46 10° S 17:01:15 80° WSW 17:05:47 10° NNW
Cosmos 1606 2.8 17:00:29 10° S 17:04:17 55° E 17:08:07 10° NNE
Sich 1 3.0 17:00:27 10° N 17:04:51 67° E 17:09:11 10° SSE
BREEZE-M TANK 4.3 17:00:40 10° W 17:06:14 35° SW 17:09:19 10° SE
Okean O Rocket 2.0 17:03:58 10° S 17:08:16 66° WSW 17:12:39 10° NNW
Cosmos 2333 Rocket 3.6 17:04:15 10° WSW 17:09:25 34° NW 17:14:35 10° NNE
Cosmos 2366 rocket 4.3 17:03:38 10° N 17:09:31 42° ENE 17:15:19 10° SE
Helios 1A Rocket 3.8 17:07:31 17° ESE 17:09:46 27° ENE 17:13:10 10° N
Nadezhda 1 Rocket 4.3 17:05:36 10° SSW 17:11:55 71° W 17:18:20 10° N
ISS -3.8 17:08:48 10° WSW 17:12:09 90° WSW 17:13:33 33° ENE
Cosmos 1125 Rocket 3.8 17:08:36 10° NNW 17:13:48 72° WSW 17:18:58 10° SSE
Cosmos 1356 3.2 17:11:11 10° N 17:14:36 70° ENE 17:18:00 10° SSE
COSMOS 2428 4.0 17:09:30 10° WSW 17:14:51 39° NW 17:20:13 10° NNE
Cosmos 1805 Rocket 3.8 17:11:18 10° NNW 17:15:46 72° W 17:20:10 10° S
Meteor 1-20 Rocket 4.4 17:10:17 10° N 17:16:02 54° ENE 17:21:44 10° SSE
Feng Yun 1-1 Rocket 4.2 17:10:20 10° SSE 17:16:07 72° ENE 17:21:47 10° N
SAR-Lupe-4 4.0 17:15:58 30° NE 17:17:09 39° E 17:20:31 10° S
CZ-4B R/B 1.0 17:17:16 18° NNE 17:19:25 87° ESE 17:22:30 10° SSW
Cosmos 2278 Rocket 3.3 17:15:32 10° NW 17:20:58 48° WSW 17:26:23 10° S
Cosmos 1151 Rocket 3.4 17:17:32 10° SSE 17:21:33 40° E 17:23:24 26° NE
Cosmos 1666 Rocket 3.5 17:17:37 10° N 17:22:00 64° E 17:26:23 10° SSE
IRS-1C Rocket 4.0 17:20:19 10° SSE 17:25:32 67° ENE 17:30:48 10° N
USA 267 3.2 17:21:46 16° ESE 17:27:01 71° NNE 17:33:31 10° NW
Cosmos 1328 Rocket 3.9 17:23:25 10° SSE 17:27:27 41° E 17:28:37 33° NE
Lacrosse 5 rocket 2.5 17:25:39 10° S 17:28:08 22° SE 17:28:08 22° SE
ERS-2 2.2 17:29:45 15° N 17:32:44 78° WNW 17:36:23 10° SSW
Cosmos 2341 Rocket 4.1 17:27:47 10° N 17:34:05 83° W 17:40:24 10° S
SAR-Lupe-1 4.0 17:33:32 47° NE 17:34:19 61° ESE 17:37:52 10° S
EO 1 Delta rocket 4.4 17:29:10 10° NNE 17:34:20 56° E 17:40:46 10° S
SL-24 R/B 3.8 17:32:45 31° NE 17:34:28 56° E 17:38:12 10° S
Meteor 1-25 Rocket 4.1 17:29:15 10° N 17:34:51 71° ENE 17:40:30 10° SSE
CZ-2D R/B 3.1 17:31:26 10° SSE 17:35:12 68° ENE 17:39:02 10° N
CZ-4 R/B 1.4 17:38:23 51° ENE 17:38:30 51° ENE 17:42:22 10° N
Cosmos 2219 Rocket 4.1 17:36:08 10° W 17:40:40 24° NW 17:45:12 10° N
H-2A R/B 4.1 17:37:24 10° N 17:40:52 26° WNW 17:44:20 10° WSW
TELKOM 3 4.5 17:39:43 10° WSW 17:41:32 38° WSW 17:41:32 38° WSW
CZ-3B R/B 3.7 17:41:53 10° S 17:42:22 12° S 17:42:22 12° S
BREEZE-M DEB (TANK) 3.2 17:41:43 10° WSW 17:43:13 34° WSW 17:43:13 34° WSW
SKYMED 2 3.5 17:40:45 17° NNE 17:44:06 88° E 17:48:27 10° SSW
USA 81 4.0 17:40:23 10° N 17:45:43 89° E 17:51:00 10° S
SL-24 DEB 4.2 17:42:45 10° N 17:47:31 63° E 17:52:11 10° S
CREW DRAGON DEMO-1 DEB 3.6 17:45:29 10° WNW 17:47:43 46° WNW 17:47:43 46° WNW
Cosmos 2285 Rocket 3.9 17:42:51 10° NNW 17:49:18 78° ENE 17:55:39 10° SSE
Cosmos 2237 Rocket 3.0 17:44:12 10° SW 17:49:38 49° WNW 17:54:26 13° NNE
Cosmos 1939 Rocket 3.5 17:47:09 10° S 17:50:56 55° W 17:54:47 10° NNW
Cosmos 1633 Rocket 3.2 17:48:19 10° NNW 17:52:43 74° W 17:57:03 10° S
H-2A R/B 2.1 17:52:26 39° ESE 17:53:58 52° ENE 17:59:02 10° N
SL-8 Rocket 4.2 17:52:02 10° NNW 17:58:15 72° W 18:04:27 10° S
Cosmos 864 Rocket 4.4 17:51:56 10° N 17:58:18 89° W 18:04:34 10° S
Cosmos 773 Rocket 3.9 17:53:24 10° S 17:58:33 61° ESE 17:59:15 56° ENE
USA 281 3.2 17:55:11 10° SSE 18:01:45 84° WSW 18:08:23 10° NNW
CSL-04 Rocket 3.6 18:01:44 55° ENE 18:01:46 55° ENE 18:06:58 10° N
Cosmos 2369 Rocket 2.7 17:57:24 10° NNW 18:02:10 41° NE 18:02:10 41° NE
Cosmos 2181 Rocket 4.2 17:58:38 10° SSW 18:05:03 73° W 18:11:28 10° N
Cosmos 783 Rocket 4.5 17:59:48 10° SSW 18:05:06 86° WNW 18:07:11 39° NNE
MOS 1 Rocket 3.5 18:03:47 43° NNE 18:05:31 68° E 18:10:56 10° S
Cosmos 1821 Rocket 4.1 18:05:56 10° N 18:11:29 53° ENE 18:11:29 53° ENE
Cosmos 1241 Rocket 4.5 18:08:06 10° NW 18:14:46 87° NE 18:17:22 40° SE
YAOGAN 1 2.9 18:21:23 65° WSW 18:21:25 65° WSW 18:25:45 10° NNW
SL-08 R/B 4.4 18:20:49 10° N 18:27:01 84° W 18:33:08 10° S
Cosmos 1470 Rocket 4.3 18:23:51 10° NNW 18:27:22 48° WNW 18:27:22 48° WNW
Cosmos 2297 4.5 18:22:44 10° NW 18:28:14 51° WSW 18:33:42 10° S
Cosmos 1943 Rocket 2.1 18:25:48 10° NNW 18:31:21 79° WSW 18:31:41 75° SSW
Meteor 1-14 Rocket 4.4 18:25:32 10° NNW 18:31:27 76° W 18:37:25 10° S
Cosmos 44 3.9 18:26:32 10° NW 18:31:45 60° WSW 18:32:40 52° SSW
COSMO-SKYMED 1 4.3 18:29:20 17° NNW 18:31:59 31° WNW 18:35:49 10° SW
Okean-O 3.8 18:29:13 10° S 18:33:25 42° W 18:37:38 10° NNW
CZ-2C R/B 3.9 18:30:34 10° S 18:35:33 47° W 18:40:20 10° NNW
ARGOS 3.9 18:38:31 42° NNW 18:38:31 42° NNW 18:42:00 10° NNW
USA 215 3.6 18:35:13 47° NNE 18:36:47 59° NNW 18:43:10 10° WSW
Cosmos 1867 4.3 18:31:56 10° WSW 18:37:12 49° NW 18:37:58 46° NNW
SL-16 R/B 2.7 18:31:54 10° SW 18:37:27 55° WNW 18:38:48 45° NNW
ISS -0.4 18:46:05 10° WNW 18:46:31 13° WNW 18:46:31 13° WNW
USA 267 4.1 19:09:08 38° SSW 19:10:18 41° SW 19:16:26 10° WNW
CZ-4 R/B 4.3 19:14:25 14° W 19:14:25 14° W 19:16:04 10° NW
H-2A R/B 4.1 19:33:03 23° WSW 19:33:39 23° W 19:37:49 10° NW
Cosmos 2369 Rocket 4.3 19:41:41 10° NW 19:43:59 22° WNW 19:43:59 22° WNW
